カタログに戻る

STARLINK-32326

運用中通信VLEO
NORAD 61674·PAYLOAD·🇺🇸 United States

打ち上げ Oct 26, 2024 から Cape Canaveral Space Force Station

Loading…

次のパス (今後24時間)

TLE

最新Source: CelesTrak SupGP

元期: Sep 14, 2026, 21:25 UTC

1 61674C 24193P   26257.89284722  .00029048  00000+0  93443-3 0  2572
2 61674  53.1591 290.8445 0001075  93.9830 253.0418 15.31677247    14

AllMySatでSTARLINK-32326をリアルタイム追跡

Download on the App Store